TimeCEST,TemperatureF,Dew PointF,Humidity,Sea Level PressureIn,VisibilityMPH,Wind Direction,Wind SpeedMPH,Gust SpeedMPH,PrecipitationIn,Events,Conditions,WindDirDegrees,DateUTC
2:00 AM,60,57,87,29.78,12,SSW,1.2,,,,Clear,200,2012-10-18 00:00:00
5:00 AM,59.0,55.4,88,29.68,-9999.0,Variable,1.2,-,N/A,,Clear,0,2012-10-18 03:00:00
5:30 AM,59.0,57.2,94,29.68,-9999.0,Variable,2.3,-,N/A,,Clear,0,2012-10-18 03:30:00
6:00 AM,59.0,55.4,88,29.68,-9999.0,South,3.5,-,N/A,,Clear,180,2012-10-18 04:00:00
6:30 AM,57.2,55.4,94,29.68,-9999.0,Variable,2.3,-,N/A,,Clear,0,2012-10-18 04:30:00
7:00 AM,59.0,57.2,94,29.68,-9999.0,South,3.5,-,N/A,,Clear,190,2012-10-18 05:00:00
7:30 AM,59.0,57.2,94,29.68,-9999.0,Variable,1.2,-,N/A,,Clear,0,2012-10-18 05:30:00
8:00 AM,58,57,95,29.68,19,SSE,3.5,,,,Scattered Clouds,160,2012-10-18 06:00:00
8:00 AM,59.0,57.2,94,29.65,-9999.0,South,3.5,-,N/A,,Clear,170,2012-10-18 06:00:00
8:30 AM,60.8,59.0,94,29.65,-9999.0,Variable,1.2,-,N/A,,Clear,0,2012-10-18 06:30:00
9:00 AM,60.8,59.0,94,29.65,-9999.0,South,4.6,-,N/A,,Clear,170,2012-10-18 07:00:00
9:30 AM,62.6,59.0,88,29.65,-9999.0,SSE,6.9,-,N/A,,Clear,160,2012-10-18 07:30:00
10:00 AM,64.4,59.0,83,29.65,-9999.0,South,10.4,-,N/A,,Clear,170,2012-10-18 08:00:00
10:30 AM,66.2,60.8,83,29.65,-9999.0,South,11.5,-,N/A,,Clear,170,2012-10-18 08:30:00
11:00 AM,68.0,62.6,83,29.65,6.2,South,13.8,-,N/A,,Partly Cloudy,180,2012-10-18 09:00:00
11:30 AM,69.8,62.6,78,29.65,6.2,South,16.1,-,N/A,,Partly Cloudy,170,2012-10-18 09:30:00
12:00 PM,69.8,62.6,78,29.62,6.2,South,18.4,-,N/A,,Partly Cloudy,180,2012-10-18 10:00:00
12:30 PM,71.6,62.6,73,29.62,6.2,South,17.3,-,N/A,,Partly Cloudy,180,2012-10-18 10:30:00
1:00 PM,71.6,64.4,78,29.62,6.2,South,20.7,-,N/A,,Scattered Clouds,180,2012-10-18 11:00:00
1:30 PM,73.4,62.6,69,29.59,6.2,South,19.6,-,N/A,,Scattered Clouds,190,2012-10-18 11:30:00
2:00 PM,72,64,68,29.60,19,South,19.6,,,,Partly Cloudy,180,2012-10-18 12:00:00
2:00 PM,71.6,62.6,73,29.59,6.2,South,19.6,-,N/A,,Scattered Clouds,180,2012-10-18 12:00:00
2:30 PM,73.4,62.6,69,29.56,6.2,South,19.6,-,N/A,,Mostly Cloudy,180,2012-10-18 12:30:00
3:00 PM,71.6,62.6,73,29.56,6.2,South,24.2,35.7,N/A,,Mostly Cloudy,180,2012-10-18 13:00:00
3:30 PM,71.6,62.6,73,29.53,6.2,South,25.3,38.0,N/A,,Mostly Cloudy,180,2012-10-18 13:30:00
4:00 PM,71.6,62.6,73,29.53,6.2,South,25.3,40.3,N/A,,Mostly Cloudy,180,2012-10-18 14:00:00
4:14 PM,60.8,59.0,94,29.56,4.3,WNW,16.1,-,N/A,Rain,Rain Showers,290,2012-10-18 14:14:00
4:30 PM,59.0,57.2,94,29.56,4.3,WNW,15.0,-,N/A,,Mostly Cloudy,290,2012-10-18 14:30:00
4:35 PM,59.0,57.2,94,29.56,2.5,WNW,15.0,-,N/A,,Mostly Cloudy,300,2012-10-18 14:35:00
5:00 PM,59.0,57.2,94,29.59,3.7,West,11.5,24.2,N/A,,Mostly Cloudy,280,2012-10-18 15:00:00
5:30 PM,59.0,57.2,94,29.59,6.2,WNW,12.7,-,N/A,,Mostly Cloudy,300,2012-10-18 15:30:00
6:00 PM,59.0,55.4,88,29.62,6.2,WNW,13.8,-,N/A,,Mostly Cloudy,300,2012-10-18 16:00:00
6:30 PM,57.2,55.4,94,29.62,6.2,NW,15.0,-,N/A,,Mostly Cloudy,310,2012-10-18 16:30:00
7:00 PM,57.2,55.4,94,29.65,6.2,WNW,12.7,-,N/A,,Mostly Cloudy,300,2012-10-18 17:00:00
7:30 PM,57.2,53.6,88,29.65,6.2,NNW,12.7,-,N/A,,Mostly Cloudy,340,2012-10-18 17:30:00
7:44 PM,55.4,53.6,94,29.65,2.5,NNW,8.1,-,N/A,Rain,Light Rain,330,2012-10-18 17:44:00
8:00 PM,56,54,92,29.68,2,North,3.5,,,Rain,Light Rain,0,2012-10-18 18:00:00
8:00 PM,55.4,55.4,100,29.68,2.5,NNW,3.5,-,N/A,Rain,Light Rain,340,2012-10-18 18:00:00
8:30 PM,55.4,55.4,100,29.68,4.3,East,3.5,-,N/A,Rain,Light Rain,100,2012-10-18 18:30:00
9:00 PM,55.4,55.4,100,29.71,5.6,Variable,1.2,-,N/A,,Light Drizzle,0,2012-10-18 19:00:00
9:30 PM,55.4,55.4,100,29.71,6.2,Variable,2.3,-,N/A,,Partly Cloudy,0,2012-10-18 19:30:00
10:00 PM,55.4,55.4,100,29.71,6.2,SSW,5.8,-,N/A,,Partly Cloudy,210,2012-10-18 20:00:00
10:30 PM,55.4,55.4,100,29.74,6.2,SSW,4.6,-,N/A,,Partly Cloudy,200,2012-10-18 20:30:00
11:00 PM,55.4,55.4,100,29.74,6.2,Variable,2.3,-,N/A,,Partly Cloudy,0,2012-10-18 21:00:00